Weather History for Youngstown, OH

Change the Weather History Date:

Monday, June 4, 2012

  Actual Average Record
Temperature  
Mean Temperature 59 °F 63 °F  
Max Temperature 69 °F 74 °F 98 °F (1934)
Min Temperature 49 °F 52 °F 38 °F (1977)
Degree Days  
Heating Degree Days 6 4  
Month to date heating degree days 16 17  
Since 1 June heating degree days 16 17  
Since 1 July heating degree days 5062 6297  
Cooling Degree Days 0 2  
Month to date cooling degree days 1 8  
Year to date cooling degree days 102 47  
Since 1 June cooling degree days 1 8  
Growing Degree Days 8 (Base 50)    
Moisture  
Dew Point 48 °F    
Average Humidity 71    
Maximum Humidity 93    
Minimum Humidity 48    
Precipitation  
Precipitation 0.00 in 0.13 in 2.46 in (1986)
Month to date precipitation 1.29 0.52  
Year to date precipitation 16.52 15.31  
Snow  
Snow 0.00 in 0.00 in - ()
Month to date snowfall 0.0 0.0  
Since 1 June snowfall 0.0 0.0  
Since 1 July snowfall 56.5 62.7  
Snow Depth 0.00 in    
Sea Level Pressure  
Sea Level Pressure 29.80 in    
Wind  
Wind Speed 8 mph (NNW)    
Max Wind Speed 18 mph    
Max Gust Speed 23 mph    
Visibility 10 miles    
Events      
T = Trace of Precipitation, MM = Missing Value Source: NWS Daily Summary

Daily Weather History Graph

Daily Weather History Graph

Search for Another Location

Airport:

Trip Planner

Search our weather history database for the weather conditions in past years. The results will help you decide how hot, cold, wet, or windy it might be!

Date:

Astronomy

Jun. 04, 2012 Rise Set
Actual Time 5:50 AM EDT 8:51 PM EDT
Civil Twilight 5:17 AM EDT 9:25 PM EDT
Nautical Twilight 4:35 AM EDT 10:07 PM EDT
Astronomical Twilight 3:45 AM EDT 10:57 PM EDT
Moon 9:19 PM EDT (6/4) 5:56 AM EDT (6/4)
Length of Visible Light 16h 07m
Length of Day
15h 01m
Full, 100% of the Moon is Illuminated
Jun 4
Full
Jun 11
Last Quarter
Jun 19
New
Jun 26
First Quarter
Jul 3
Full

Hourly Weather History & Observations

Time (EDT) Temp. Dew Point Humidity Pressure Visibility Wind Dir Wind Speed Gust Speed Precip Events Conditions
12:51 AM 55.9 °F 51.1 °F 84% 29.76 in 10.0 mi NNW 8.1 mph - N/A   Scattered Clouds
1:51 AM 55.0 °F 50.0 °F 83% 29.75 in 10.0 mi NNW 5.8 mph - N/A   Scattered Clouds
2:51 AM 51.8 °F 48.2 °F 88% 29.76 in 10.0 mi Calm Calm - N/A   Scattered Clouds
3:51 AM 51.1 °F 46.9 °F 86% 29.74 in 10.0 mi Calm Calm - N/A   Mostly Cloudy
4:51 AM 48.9 °F 46.0 °F 90% 29.73 in 10.0 mi West 3.5 mph - N/A   Mostly Cloudy
5:51 AM 50.0 °F 48.0 °F 93% 29.75 in 10.0 mi Calm Calm - N/A   Mostly Cloudy
6:51 AM 53.1 °F 48.9 °F 86% 29.75 in 10.0 mi WNW 3.5 mph - N/A   Mostly Cloudy
7:51 AM 55.9 °F 48.0 °F 75% 29.76 in 10.0 mi NW 9.2 mph - N/A   Partly Cloudy
8:51 AM 59.0 °F 48.9 °F 69% 29.77 in 10.0 mi NNW 9.2 mph - N/A   Scattered Clouds
9:03 AM 60.8 °F 48.2 °F 63% 29.78 in 10.0 mi NNW 13.8 mph - N/A   Mostly Cloudy
9:51 AM 59.0 °F 48.9 °F 69% 29.79 in 10.0 mi NNW 11.5 mph - N/A   Overcast
10:51 AM 62.1 °F 50.0 °F 65% 29.79 in 10.0 mi NW 12.7 mph - N/A   Mostly Cloudy
11:51 AM 63.0 °F 48.0 °F 58% 29.80 in 10.0 mi NNW 10.4 mph - N/A   Overcast
12:28 PM 64.4 °F 48.2 °F 56% 29.80 in 10.0 mi NNW 11.5 mph 17.3 mph N/A   Overcast
12:51 PM 64.0 °F 46.9 °F 54% 29.80 in 10.0 mi North 9.2 mph - N/A   Overcast
1:51 PM 64.0 °F 48.0 °F 56% 29.80 in 10.0 mi North 11.5 mph - N/A   Overcast
2:51 PM 66.9 °F 46.9 °F 49% 29.80 in 10.0 mi North 11.5 mph - N/A   Mostly Cloudy
3:51 PM 64.9 °F 46.9 °F 52% 29.81 in 10.0 mi NNE 9.2 mph - N/A   Mostly Cloudy
4:51 PM 66.0 °F 48.0 °F 52% 29.81 in 10.0 mi NNE 9.2 mph - N/A   Mostly Cloudy
5:51 PM 68.0 °F 48.9 °F 50% 29.81 in 10.0 mi North 12.7 mph - N/A   Mostly Cloudy
6:51 PM 62.1 °F 50.0 °F 65% 29.83 in 10.0 mi NNE 13.8 mph 19.6 mph N/A   Mostly Cloudy
7:51 PM 61.0 °F 48.0 °F 62% 29.84 in 10.0 mi North 11.5 mph - N/A   Scattered Clouds
8:51 PM 57.0 °F 48.9 °F 74% 29.85 in 10.0 mi North 6.9 mph - N/A   Scattered Clouds
9:51 PM 55.9 °F 50.0 °F 80% 29.86 in 10.0 mi North 6.9 mph - N/A   Mostly Cloudy
10:51 PM 55.9 °F 50.0 °F 80% 29.86 in 10.0 mi NNE 5.8 mph - N/A   Overcast
11:51 PM 55.9 °F 50.0 °F 80% 29.86 in 10.0 mi North 5.8 mph - N/A   Overcast